Weather History for Albion, NE

Change the Weather History Date:

Monday, February 18, 2013

  Actual Average (KOFK) Record (KOFK)
Temperature  
Mean Temperature 34 °F 28 °F  
Max Temperature 43 °F 38 °F 71 °F (1930)
Min Temperature 22 °F 17 °F -20 °F (1903)
Degree Days  
Heating Degree Days 32 37  
Month to date heating degree days 713  
Since 1 July heating degree days 4735  
Cooling Degree Days 0 0  
Month to date cooling degree days 0  
Year to date cooling degree days 0  
Moisture  
Dew Point 21 °F    
Average Humidity 62    
Maximum Humidity 79    
Minimum Humidity 47    
Precipitation  
Precipitation 0.00 in 0.03 in 2.36 in (1971)
Month to date precipitation 0.46  
Year to date precipitation 1.05  
Snow  
Snow 0.00 in 0.20 in - ()
Month to date snowfall 3.7  
Since 1 July snowfall 21.0  
Snow Depth -    
Sea Level Pressure  
Sea Level Pressure 29.82 in    
Wind  
Wind Speed 19 mph (NNW)    
Max Wind Speed 34 mph    
Max Gust Speed 46 mph    
Visibility 10 miles    
Events Snow    
T = Trace of Precipitation, MM = Missing Value Source: NWS Daily Summary

Daily Weather History Graph

Daily Weather History Graph

Search for Another Location

Airport:

Trip Planner

Search our weather history database for the weather conditions in past years. The results will help you decide how hot, cold, wet, or windy it might be!

Date:

Astronomy

Feb. 18, 2013 Rise Set
Actual Time 7:23 AM CST 6:09 PM CST
Civil Twilight 6:54 AM CST 6:38 PM CST
Nautical Twilight 6:22 AM CST 7:10 PM CST
Astronomical Twilight 5:50 AM CST 7:42 PM CST
Moon 11:54 AM CST (2/18) 2:06 AM CST (2/18)
Length of Visible Light 11h 43m
Length of Day
10h 46m
First Quarter, 58% of the Moon is Illuminated
Feb 18
First Quarter
Feb 25
Full
Mar 4
Last Quarter
Mar 11
New
Mar 19
First Quarter

Hourly Weather History & Observations

Time (CST) Temp. Windchill Dew Point Humidity Pressure Visibility Wind Dir Wind Speed Gust Speed Precip Events Conditions
12:15 AM 43.9 °F 36.5 °F 31.1 °F 61% 29.59 in 10.0 mi NNW 16.1 mph 27.6 mph N/A   Clear
12:35 AM 43.3 °F 35.8 °F 31.6 °F 63% 29.60 in 10.0 mi NNW 16.1 mph 25.3 mph N/A   Clear
12:55 AM 42.3 °F 33.3 °F 31.6 °F 66% 29.60 in 10.0 mi NNW 20.7 mph 27.6 mph N/A   Clear
1:15 AM 41.9 °F 33.7 °F 31.6 °F 67% 29.60 in 10.0 mi North 17.3 mph 25.3 mph N/A   Clear
1:35 AM 41.5 °F 33.2 °F 31.6 °F 68% 29.59 in 10.0 mi North 17.3 mph 23.0 mph N/A   Clear
1:55 AM 41.2 °F 33.4 °F 31.5 °F 68% 29.60 in 10.0 mi North 15.0 mph 24.2 mph N/A   Clear
2:15 AM 41.0 °F 33.1 °F 31.1 °F 68% 29.60 in 10.0 mi NNW 15.0 mph 25.3 mph N/A   Clear
2:35 AM 41.0 °F 32.5 °F 31.3 °F 68% 29.60 in 10.0 mi North 17.3 mph 26.5 mph N/A   Clear
2:55 AM 40.5 °F 31.8 °F 31.3 °F 70% 29.60 in 10.0 mi NNW 17.3 mph 26.5 mph N/A   Clear
3:15 AM 39.7 °F 30.6 °F 31.1 °F 71% 29.60 in 10.0 mi NNW 18.4 mph 26.5 mph N/A   Clear
3:35 AM 39.4 °F 29.5 °F 30.2 °F 70% 29.60 in 10.0 mi NNW 20.7 mph 26.5 mph N/A   Clear
3:55 AM 39.2 °F 28.7 °F 29.8 °F 69% 29.59 in 10.0 mi NNW 23.0 mph 27.6 mph N/A   Clear
4:15 AM 39.2 °F 29.6 °F 29.3 °F 68% 29.60 in 10.0 mi NNW 19.6 mph 34.5 mph N/A   Scattered Clouds
4:35 AM 38.8 °F 28.8 °F 28.9 °F 68% 29.61 in 10.0 mi NNW 20.7 mph 32.2 mph N/A   Mostly Cloudy
4:55 AM 38.7 °F 28.6 °F 28.8 °F 68% 29.62 in 10.0 mi NNW 20.7 mph 29.9 mph N/A   Overcast
5:15 AM 38.5 °F 28.9 °F 28.4 °F 67% 29.63 in 10.0 mi NNW 18.4 mph 36.8 mph N/A   Mostly Cloudy
5:35 AM 37.8 °F 28.3 °F 28.2 °F 68% 29.65 in 10.0 mi NNW 17.3 mph 29.9 mph N/A   Mostly Cloudy
5:55 AM 37.4 °F 26.4 °F 27.9 °F 68% 29.66 in 10.0 mi NNW 23.0 mph 28.8 mph N/A   Mostly Cloudy
6:15 AM 37.4 °F 26.1 °F 27.5 °F 67% 29.65 in 10.0 mi NNW 24.2 mph 33.4 mph N/A   Overcast
6:35 AM 37.4 °F 26.1 °F 27.3 °F 67% 29.66 in 10.0 mi NNW 24.2 mph 31.1 mph N/A   Overcast
6:55 AM 37.2 °F 25.6 °F 27.3 °F 67% 29.65 in 10.0 mi NNW 25.3 mph 36.8 mph N/A   Overcast
7:15 AM 36.9 °F 25.4 °F 27.5 °F 69% 29.66 in 10.0 mi NNW 24.2 mph 33.4 mph N/A   Overcast
7:35 AM 36.9 °F 25.4 °F 27.9 °F 70% 29.67 in 10.0 mi NNW 24.2 mph 33.4 mph N/A   Overcast
7:55 AM 36.9 °F 25.4 °F 27.3 °F 68% 29.68 in 10.0 mi NNW 24.2 mph 38.0 mph N/A   Overcast
8:15 AM 36.7 °F 24.0 °F 26.4 °F 66% 29.69 in 10.0 mi NNW 29.9 mph 42.6 mph N/A   Overcast
8:35 AM 35.6 °F 23.2 °F 23.5 °F 62% 29.72 in 5.0 mi NNW 26.5 mph 46.0 mph N/A   Haze
8:55 AM 34.2 °F 21.5 °F 23.4 °F 65% 29.73 in 7.0 mi NNW 25.3 mph 39.1 mph N/A   Mostly Cloudy
9:15 AM 33.8 °F 19.9 °F 23.2 °F 65% 29.74 in 10.0 mi NNW 31.1 mph 41.4 mph N/A   Overcast
9:35 AM 33.3 °F 18.5 °F 22.6 °F 65% 29.76 in 10.0 mi NNW 34.5 mph 43.7 mph N/A   Overcast
9:55 AM 32.9 °F 18.9 °F 22.1 °F 65% 29.77 in 10.0 mi NNW 29.9 mph 41.4 mph N/A   Overcast
10:15 AM 32.4 °F 19.1 °F 22.1 °F 66% 29.78 in 10.0 mi NNW 25.3 mph 33.4 mph N/A   Overcast
10:35 AM 32.0 °F 18.6 °F 21.7 °F 66% 29.80 in 10.0 mi NNW 25.3 mph 36.8 mph N/A   Overcast
10:55 AM 31.3 °F 16.7 °F 19.9 °F 63% 29.82 in 10.0 mi NW 29.9 mph 36.8 mph N/A   Overcast
11:15 AM 30.7 °F 16.7 °F 18.9 °F 61% 29.83 in 10.0 mi NNW 26.5 mph 40.3 mph N/A   Overcast
11:35 AM 30.4 °F 15.4 °F 17.8 °F 60% 29.85 in 10.0 mi NNW 29.9 mph 40.3 mph N/A   Overcast
11:55 AM 31.1 °F 16.9 °F 16.3 °F 54% 29.86 in 10.0 mi NNW 27.6 mph 33.4 mph N/A   Overcast
12:15 PM 31.3 °F 17.4 °F 15.6 °F 52% 29.87 in 10.0 mi NNW 26.5 mph 42.6 mph N/A   Overcast
12:35 PM 32.0 °F 18.9 °F 15.3 °F 50% 29.87 in 10.0 mi NNW 24.2 mph 35.7 mph N/A   Mostly Cloudy
12:55 PM 32.0 °F 19.8 °F 15.3 °F 50% 29.88 in 10.0 mi NNW 20.7 mph 35.7 mph N/A   Mostly Cloudy
1:15 PM 31.6 °F 18.7 °F 15.3 °F 51% 29.88 in 10.0 mi NNW 23.0 mph 33.4 mph N/A   Overcast
1:35 PM 31.8 °F 19.0 °F 14.9 °F 50% 29.89 in 10.0 mi North 23.0 mph 34.5 mph N/A   Overcast
1:55 PM 30.7 °F 18.5 °F 14.9 °F 52% 29.89 in 10.0 mi NNW 19.6 mph 29.9 mph N/A   Overcast
2:15 PM 31.1 °F 19.3 °F 14.5 °F 50% 29.90 in 10.0 mi NNW 18.4 mph 29.9 mph N/A   Overcast
2:35 PM 32.0 °F 19.5 °F 14.2 °F 48% 29.90 in 10.0 mi NW 21.9 mph 33.4 mph N/A   Overcast
2:55 PM 32.9 °F 19.6 °F 14.5 °F 47% 29.90 in 10.0 mi NNW 26.5 mph 38.0 mph N/A   Scattered Clouds
3:15 PM 33.3 °F 20.9 °F 14.7 °F 47% 29.90 in 10.0 mi NNW 23.0 mph 32.2 mph N/A   Scattered Clouds
3:35 PM 32.5 °F 20.8 °F 14.5 °F 48% 29.91 in 10.0 mi NNW 19.6 mph 34.5 mph N/A   Scattered Clouds
3:55 PM 32.2 °F 20.0 °F 14.5 °F 48% 29.92 in 10.0 mi NNW 20.7 mph 33.4 mph N/A   Mostly Cloudy
4:15 PM 32.0 °F 20.8 °F 14.7 °F 49% 29.93 in 10.0 mi NNW 17.3 mph 31.1 mph N/A   Overcast
4:35 PM 32.0 °F 18.4 °F 14.9 °F 49% 29.94 in 10.0 mi NNW 26.5 mph 29.9 mph N/A   Overcast
4:55 PM 32.9 °F 22.0 °F 15.3 °F 48% 29.94 in 10.0 mi NNW 17.3 mph 26.5 mph N/A   Overcast
5:35 PM 31.8 °F 21.8 °F 14.5 °F 49% 29.96 in 10.0 mi NNW 13.8 mph 26.5 mph N/A   Scattered Clouds
5:55 PM 30.9 °F 19.4 °F 13.8 °F 49% 29.97 in 10.0 mi NNW 17.3 mph 24.2 mph N/A   Scattered Clouds
6:15 PM 29.8 °F 21.5 °F 13.8 °F 51% 29.98 in 10.0 mi NNW 9.2 mph 19.6 mph N/A   Clear
6:35 PM 28.4 °F 19.7 °F 14.2 °F 55% 29.98 in 10.0 mi NW 9.2 mph - N/A   Clear
6:55 PM 27.5 °F 18.0 °F 14.5 °F 58% 29.98 in 10.0 mi NNW 10.4 mph - N/A   Scattered Clouds
7:15 PM 28.4 °F 18.5 °F 14.9 °F 57% 29.99 in 10.0 mi NNW 11.5 mph - N/A   Clear
7:35 PM 27.0 °F 18.7 °F 14.9 °F 60% 29.99 in 10.0 mi NW 8.1 mph - N/A   Clear
7:55 PM 25.7 °F 19.0 °F 14.7 °F 63% 30.00 in 10.0 mi NW 5.8 mph - N/A   Clear
8:15 PM 24.8 °F 19.1 °F 14.9 °F 66% 30.00 in 10.0 mi NW 4.6 mph - N/A   Mostly Cloudy
8:35 PM 25.7 °F 19.0 °F 15.8 °F 66% 30.01 in 10.0 mi NW 5.8 mph - N/A   Overcast
8:55 PM 27.9 °F 18.4 °F 16.2 °F 62% 30.01 in 10.0 mi NNW 10.4 mph - N/A   Overcast
9:15 PM 27.5 °F 18.6 °F 16.0 °F 62% 30.02 in 10.0 mi NNW 9.2 mph 19.6 mph N/A   Overcast
9:35 PM 27.1 °F 14.5 °F 16.5 °F 64% 30.03 in 10.0 mi NW 17.3 mph 21.9 mph N/A   Overcast
9:55 PM 26.8 °F 12.6 °F 17.6 °F 68% 30.03 in 10.0 mi NW 21.9 mph 27.6 mph N/A   Overcast
10:15 PM 26.2 °F 13.4 °F 17.4 °F 69% 30.04 in 10.0 mi NNW 17.3 mph 25.3 mph N/A   Mostly Cloudy
10:35 PM 26.4 °F 12.5 °F 16.2 °F 65% 30.05 in 10.0 mi NNW 20.7 mph 31.1 mph N/A   Mostly Cloudy
10:55 PM 25.7 °F 12.3 °F 16.2 °F 67% 30.06 in 10.0 mi NW 18.4 mph 23.0 mph N/A   Mostly Cloudy
11:15 PM 26.4 °F 12.5 °F 16.0 °F 65% 30.06 in 10.0 mi NW 20.7 mph 26.5 mph N/A Snow Light Snow
11:35 PM 25.2 °F 15.1 °F 19.6 °F 79% 30.07 in 3.0 mi NNW 10.4 mph - N/A Snow Light Snow
11:55 PM 22.8 °F 12.2 °F 16.7 °F 77% 30.08 in 10.0 mi NNW 10.4 mph 18.4 mph N/A   Scattered Clouds